Regional Weather Roundup
Issued by NWS

Home | Current Version | Previous Version | Text Only | Print | Product List | Glossary On
Versions: 1 2 3 4 5 6 7 8 9 10 11 12 13 14 15 16 17 18 19 20 21 22 23 24 25 26 27 28 29 30 31 32 33 34 35 36 37 38 39 40 41 42 43 44 45 46 47 48 49 50
000
ASUS43 KFSD 262302
RWRSD

WEATHER ROUNDUP FOR SOUTH DAKOTA
NATIONAL WEATHER SERVICE SIOUX FALLS SD
600 PM CDT TUE MAY 26 2015

NOTE: "FAIR" INDICATES FEW OR NO CLOUDS BELOW 12,000 FEET WITH NO
SIGNIFICANT WEATHER AND/OR OBSTRUCTIONS TO VISIBILITY.


SDZ001>005-009-010-012>017-270000-
NORTHWEST AND NORTH CENTRAL SOUTH DAKOTA

CITY           SKY/WX    TMP DP  RH WIND       PRES   REMARKS
FAITH            N/A     72  45  37 CALM      29.92F
MOBRIDGE       SUNNY     80  48  32 NW10      29.84F
$$

SDZ012>016-024>037-041>051-057-063-072>074-270000-
SOUTHWEST AND SOUTH CENTRAL SOUTH DAKOTA

CITY           SKY/WX    TMP DP  RH WIND       PRES   REMARKS
RAPID CTY ARPT PTSUNNY   69  49  48 S10       29.95F
PIERRE         SUNNY     77  50  38 NW15      29.86F
CUSTER         LGT RAIN  49  44  83 SE8       30.05S
ELLSWORTH AFB  PTSUNNY   69  51  51 S12       29.95F
PHILIP         MOSUNNY   74  47  38 W6        29.92F
PINE RIDGE     SUNNY     68  46  45 S7        29.97F
WINNER         FAIR      77  46  33 N10       29.89F
$$

SDZ004>011-016>023-039-040-270000-
NORTHEAST SOUTH DAKOTA

CITY           SKY/WX    TMP DP  RH WIND       PRES   REMARKS
ABERDEEN       CLOUDY    70  49  47 NW25G37   29.84R THUNDER
WATERTOWN      CLOUDY    69  52  54 W5        29.83F
BROOKINGS      CLOUDY    68  52  56 N12       29.84F
$$

SDZ017-020-022-023-036>040-048>070-270000-
SOUTHEAST SOUTH DAKOTA

CITY           SKY/WX    TMP DP  RH WIND       PRES   REMARKS
SIOUX FALLS    CLOUDY    68  53  58 N9        29.83S
HURON          PTSUNNY   77  48  35 NE3G17    29.82F
CHAMBERLAIN    PTSUNNY   72  50  46 E12       29.88R
MITCHELL       PTSUNNY   78  49  35 VRB6      29.84S
YANKTON        MOSUNNY   72  52  49 NW8       29.83F
$$

ABBREVIATIONS USED IN REMARKS
   TC - TEMPERATURE IN CELSIUS
  WCI - WIND CHILL INDEX
   HX - HEAT INDEX
  VSB - VISIBILITY



USA.gov is the U.S. government's official web portal to all federal, state and local government web resources and services.